This demonstration page uses our WeatherBlox Daily Observations layout. Learn more.

Left ArrowRight Arrow

38.20091, -84.87328

Hourly Observations for April 13, 2016

Temp ( °F °C ) Dew Point ( °F °C ) Humidity (%) Winds ( mph kmh ) Pressure ( in mb ) Visibility ( mi km ) Precip ( " mm )
12:53 am 00:53 Clear 43 6.1 28 -2.2 56 56 NE 6 9 30.31 1026 10 16 0.00 0.00
1:53 am 01:53 Clear 42 5.6 28 -2.2 58 58 NE 6 9 30.31 1026 10 16 0.00 0.00
2:53 am 02:53 Clear 40 4.4 28 -2.2 63 63 NE 6 9 30.30 1026 10 16 0.00 0.00
3:53 am 03:53 Clear 38 3.3 28 -2.2 68 68 NE 3 6 30.30 1026 10 16 0.00 0.00
4:53 am 04:53 Clear 39 3.9 27 -2.8 62 62 NE 6 9 30.29 1026 10 16 0.00 0.00
5:53 am 05:53 Clear 39 3.9 27 -2.8 62 62 ENE 7 11 30.29 1026 10 16 0.00 0.00
6:53 am 06:53 Clear 38 3.3 27 -2.8 65 65 ENE 8 13 30.29 1026 10 16 0.00 0.00
7:53 am 07:53 Sunny 39 3.9 27 -2.8 62 62 ENE 7 11 30.29 1026 10 16 0.00 0.00
8:53 am 08:53 Sunny 42 5.6 28 -2.2 58 58 ENE 9 15 30.30 1026 10 16 0.00 0.00
9:53 am 09:53 Sunny 47 8.3 29 -1.7 50 50 ENE 12 19 30.28 1026 10 16 0.00 0.00
10:53 am 10:53 Sunny 51 10.6 30 -1.1 44 44 ENE 10 17 30.27 1025 10 16 0.00 0.00
11:53 am 11:53 Sunny 55 12.8 31 -0.6 40 40 E 10 17 30.28 1026 10 16 0.00 0.00
12:53 pm 12:53 Sunny 58 14.4 31 -0.6 36 36 E 8 13 30.26 1025 10 16 0.00 0.00
1:53 pm 13:53 Sunny 60 15.6 29 -1.7 31 31 E 12 19 30.23 1024 10 16 0.00 0.00
2:53 pm 14:53 Sunny 62 16.7 30 -1.1 30 30 E 8 13 30.22 1023 10 16 0.00 0.00
3:53 pm 15:53 Sunny 64 17.8 30 -1.1 28 28 ENE 9 15 30.20 1023 10 16 0.00 0.00
4:53 pm 16:53 Sunny 64 17.8 27 -2.8 25 25 ENE 7 11 30.18 1022 10 16 0.00 0.00
5:53 pm 17:53 Sunny 65 18.3 29 -1.7 26 26 NNE 8 13 30.17 1022 10 16 0.00 0.00
6:53 pm 18:53 Sunny 63 17.2 30 -1.1 29 29 ENE 7 11 30.16 1022 10 16 0.00 0.00
7:53 pm 19:53 Sunny 58 14.4 31 -0.6 36 36 E 6 9 30.16 1021 10 16 0.00 0.00
8:53 pm 20:53 Clear 59 15 29 -1.7 32 32 NE 5 7 30.15 1021 10 16 0.00 0.00
9:53 pm 21:53 Mostly Cloudy 57 13.9 29 -1.7 34 34 NNE 5 7 30.16 1022 10 16 0.00 0.00
10:53 pm 22:53 Cloudy 56 13.3 29 -1.7 36 36 NNE 7 11 30.17 1022 10 16 0.00 0.00
11:53 pm 23:53 Mostly Clear 53 11.7 30 -1.1 41 41 NNE 7 11 30.16 1022 10 16 0.00 0.00

Powered by AerisWeather